When you browse on this site, cookies collect data to enhance your experience and personalize the content and advertising you see.
Visit our Privacy Policy to learn more. By continuing to use the site, you agree to this use of cookies and data.
  • Em Portugal
  • Lista de países
  • Para 7 dias
  • Temperatura da água
  • Mapas de satélite
  • Mapa do tempo
  • Widgets de tempo
  • user-avatar
    Iniciar Sessão

    Previsão horária em Parakou

    Hoje, 21 Maio, Terça-feira

    Tempo Temperatura Precipitação Vento Pressão Humidade
    00:00 +28°C° 0.7 mm 1 m/s 728 mmHg 76%
    01:00 +28°C° 0 mm 1 m/s 727 mmHg 78%
    02:00 +28°C° 0 mm 2 m/s 727 mmHg 80%
    03:00 +27°C° 0 mm 2 m/s 727 mmHg 82%
    04:00 +27°C° 0 mm 2 m/s 727 mmHg 82%
    05:00 +27°C° 0 mm 2 m/s 727 mmHg 82%
    06:00 +27°C° 0 mm 1 m/s 728 mmHg 83%
    07:00 +29°C° 1.1 mm 1 m/s 728 mmHg 77%
    08:00 +30°C° 1.1 mm 1 m/s 729 mmHg 71%
    09:00 +31°C° 1.1 mm 1 m/s 729 mmHg 65%
    10:00 +32°C° 0.9 mm 1 m/s 729 mmHg 59%
    11:00 +33°C° 0.9 mm 1 m/s 729 mmHg 54%
    12:00 +34°C° 0.9 mm 1 m/s 729 mmHg 49%
    13:00 +35°C° 0 mm 1 m/s 728 mmHg 46%
    14:00 +35°C° 0 mm 1 m/s 727 mmHg 44%
    15:00 +34°C° 0 mm 0 m/s 726 mmHg 42%
    16:00 +34°C° 0 mm 1 m/s 726 mmHg 46%
    17:00 +33°C° 0 mm 1 m/s 726 mmHg 50%
    18:00 +32°C° 0 mm 1 m/s 726 mmHg 54%
    19:00 +31°C° 0 mm 1 m/s 726 mmHg 57%
    20:00 +30°C° 0 mm 1 m/s 726 mmHg 60%
    21:00 +29°C° 0 mm 1 m/s 726 mmHg 63%
    22:00 +29°C° 0 mm 2 m/s 726 mmHg 65%
    23:00 +28°C° 0 mm 2 m/s 726 mmHg 68%

    Amanhã, 22 Maio, Quarta-feira

    Tempo Temperatura Precipitação Vento Pressão Humidade
    00:00 +28°C° 0 mm 3 m/s 727 mmHg 71%
    01:00 +27°C° 0 mm 2 m/s 726 mmHg 75%
    02:00 +27°C° 0 mm 2 m/s 726 mmHg 78%
    03:00 +26°C° 0 mm 1 m/s 726 mmHg 82%
    04:00 +26°C° 0 mm 1 m/s 727 mmHg 83%
    05:00 +26°C° 0 mm 1 m/s 727 mmHg 84%
    06:00 +26°C° 0 mm 1 m/s 728 mmHg 85%
    07:00 +28°C° 0 mm 2 m/s 728 mmHg 76%
    08:00 +30°C° 0 mm 2 m/s 728 mmHg 66%
    09:00 +32°C° 0 mm 2 m/s 728 mmHg 57%
    10:00 +36°C° 0 mm 2 m/s 728 mmHg 50%
    11:00 +38°C° 0 mm 2 m/s 728 mmHg 42%
    12:00 +40°C° 0 mm 1 m/s 728 mmHg 35%
    13:00 +39°C° 0 mm 2 m/s 727 mmHg 37%
    14:00 +38°C° 0 mm 3 m/s 726 mmHg 40%
    15:00 +37°C° 0 mm 3 m/s 725 mmHg 42%
    16:00 +35°C° 0.2 mm 3 m/s 725 mmHg 47%
    17:00 +34°C° 0.2 mm 3 m/s 726 mmHg 52%
    18:00 +31°C° 0.2 mm 3 m/s 726 mmHg 57%
    19:00 +30°C° 1 mm 2 m/s 726 mmHg 64%
    20:00 +28°C° 1 mm 2 m/s 727 mmHg 71%
    21:00 +27°C° 1 mm 2 m/s 727 mmHg 78%
    22:00 +27°C° 0 mm 2 m/s 727 mmHg 80%
    23:00 +27°C° 0 mm 2 m/s 727 mmHg 82%

    Depois de amanhã, 23 Maio, Quinta-feira

    Tempo Temperatura Precipitação Vento Pressão Humidade
    00:00 +27°C° 0 mm 3 m/s 727 mmHg 84%
    01:00 +27°C° 0.1 mm 2 m/s 727 mmHg 86%
    02:00 +26°C° 0.1 mm 1 m/s 727 mmHg 87%
    03:00 +24°C° 0.1 mm 0 m/s 727 mmHg 88%
    04:00 +26°C° 0.7 mm 1 m/s 727 mmHg 89%
    05:00 +26°C° 0.7 mm 1 m/s 727 mmHg 90%
    06:00 +26°C° 0.7 mm 1 m/s 728 mmHg 91%
    07:00 +27°C° 0 mm 1 m/s 728 mmHg 86%
    08:00 +28°C° 0 mm 1 m/s 728 mmHg 81%
    09:00 +29°C° 0 mm 1 m/s 728 mmHg 76%
    10:00 +32°C° 0 mm 1 m/s 728 mmHg 64%
    11:00 +34°C° 0 mm 1 m/s 728 mmHg 52%
    12:00 +37°C° 0 mm 1 m/s 727 mmHg 40%
    13:00 +38°C° 0 mm 2 m/s 726 mmHg 37%
    14:00 +38°C° 0 mm 2 m/s 726 mmHg 34%
    15:00 +39°C° 0 mm 2 m/s 725 mmHg 31%
    16:00 +37°C° 0 mm 2 m/s 725 mmHg 37%
    17:00 +35°C° 0 mm 2 m/s 725 mmHg 43%
    18:00 +34°C° 0 mm 2 m/s 725 mmHg 49%
    19:00 +32°C° 0 mm 1 m/s 726 mmHg 51%
    20:00 +31°C° 0 mm 1 m/s 726 mmHg 54%
    21:00 +30°C° 0 mm 1 m/s 727 mmHg 57%
    22:00 +30°C° 0.1 mm 1 m/s 727 mmHg 63%
    23:00 +29°C° 0.1 mm 2 m/s 727 mmHg 70%

    24 Maio, Sexta-feira

    Tempo Temperatura Precipitação Vento Pressão Humidade
    00:00 +28°C° 0.1 mm 2 m/s 727 mmHg 77%
    01:00 +28°C° 0 mm 2 m/s 726 mmHg 80%
    02:00 +27°C° 0 mm 2 m/s 726 mmHg 83%
    03:00 +27°C° 0 mm 2 m/s 726 mmHg 86%
    04:00 +27°C° 0 mm 2 m/s 726 mmHg 87%
    05:00 +26°C° 0 mm 2 m/s 726 mmHg 87%
    06:00 +26°C° 0 mm 2 m/s 727 mmHg 88%
    07:00 +28°C° 0 mm 3 m/s 727 mmHg 79%
    08:00 +30°C° 0 mm 3 m/s 727 mmHg 71%
    09:00 +33°C° 0 mm 3 m/s 728 mmHg 62%
    10:00 +35°C° 0 mm 3 m/s 727 mmHg 55%
    11:00 +37°C° 0 mm 3 m/s 727 mmHg 47%
    12:00 +39°C° 0 mm 3 m/s 726 mmHg 40%
    13:00 +39°C° 0 mm 3 m/s 725 mmHg 37%
    14:00 +40°C° 0 mm 2 m/s 725 mmHg 35%
    15:00 +40°C° 0 mm 2 m/s 724 mmHg 32%
    16:00 +39°C° 0 mm 2 m/s 724 mmHg 37%
    17:00 +37°C° 0 mm 3 m/s 725 mmHg 41%
    18:00 +36°C° 0 mm 4 m/s 725 mmHg 45%
    19:00 +34°C° 1.5 mm 3 m/s 725 mmHg 58%
    20:00 +30°C° 1.5 mm 2 m/s 726 mmHg 71%
    21:00 +28°C° 1.5 mm 1 m/s 726 mmHg 84%
    22:00 +28°C° 1.6 mm 1 m/s 727 mmHg 86%
    23:00 +28°C° 1.6 mm 2 m/s 727 mmHg 88%

    25 Maio, Sábado

    Tempo Temperatura Precipitação Vento Pressão Humidade
    00:00 +27°C° 1.6 mm 2 m/s 727 mmHg 90%
    01:00 +27°C° 0 mm 2 m/s 727 mmHg 91%
    02:00 +27°C° 0 mm 2 m/s 726 mmHg 91%
    03:00 +27°C° 0 mm 2 m/s 725 mmHg 91%
    04:00 +26°C° 0 mm 2 m/s 726 mmHg 91%
    05:00 +26°C° 0 mm 2 m/s 726 mmHg 91%
    06:00 +26°C° 0 mm 2 m/s 726 mmHg 91%
    07:00 +27°C° 0.1 mm 2 m/s 727 mmHg 88%
    08:00 +28°C° 0.1 mm 2 m/s 728 mmHg 84%
    09:00 +28°C° 0.1 mm 2 m/s 729 mmHg 81%
    10:00 +30°C° 0.2 mm 2 m/s 729 mmHg 74%
    11:00 +31°C° 0.2 mm 2 m/s 728 mmHg 66%
    12:00 +34°C° 0.2 mm 2 m/s 727 mmHg 59%
    13:00 +34°C° 0 mm 2 m/s 727 mmHg 56%
    14:00 +35°C° 0 mm 2 m/s 726 mmHg 52%
    15:00 +35°C° 0 mm 2 m/s 725 mmHg 49%
    16:00 +34°C° 0 mm 2 m/s 725 mmHg 53%
    17:00 +32°C° 0 mm 2 m/s 726 mmHg 57%
    18:00 +31°C° 0 mm 2 m/s 726 mmHg 61%
    19:00 +30°C° 0 mm 2 m/s 726 mmHg 65%
    20:00 +30°C° 0 mm 2 m/s 727 mmHg 68%
    21:00 +29°C° 0 mm 1 m/s 727 mmHg 72%
    22:00 +29°C° 0 mm 2 m/s 727 mmHg 74%
    23:00 +28°C° 0 mm 2 m/s 727 mmHg 77%

    26 Maio, Domingo

    Tempo Temperatura Precipitação Vento Pressão Humidade
    00:00 +28°C° 0 mm 2 m/s 727 mmHg 79%
    01:00 +27°C° 0 mm 2 m/s 726 mmHg 81%
    02:00 +27°C° 0 mm 2 m/s 726 mmHg 83%
    03:00 +27°C° 0 mm 2 m/s 726 mmHg 85%
    04:00 +27°C° 0 mm 2 m/s 726 mmHg 86%
    05:00 +27°C° 0 mm 2 m/s 727 mmHg 87%
    06:00 +26°C° 0 mm 2 m/s 727 mmHg 88%
    07:00 +28°C° 0 mm 2 m/s 727 mmHg 80%
    08:00 +30°C° 0 mm 3 m/s 728 mmHg 73%
    09:00 +31°C° 0 mm 3 m/s 728 mmHg 65%
    10:00 +34°C° 0 mm 3 m/s 728 mmHg 58%
    11:00 +36°C° 0 mm 3 m/s 727 mmHg 51%
    12:00 +37°C° 0 mm 3 m/s 726 mmHg 43%
    13:00 +38°C° 0 mm 3 m/s 726 mmHg 41%
    14:00 +38°C° 0 mm 3 m/s 725 mmHg 38%
    15:00 +39°C° 0 mm 3 m/s 725 mmHg 36%
    16:00 +37°C° 0 mm 2 m/s 725 mmHg 40%
    17:00 +36°C° 0 mm 2 m/s 725 mmHg 44%
    18:00 +35°C° 0 mm 2 m/s 725 mmHg 48%
    19:00 +34°C° 0 mm 2 m/s 726 mmHg 51%
    20:00 +32°C° 0 mm 2 m/s 726 mmHg 53%
    21:00 +31°C° 0 mm 2 m/s 727 mmHg 56%
    22:00 +30°C° 0 mm 2 m/s 726 mmHg 60%
    23:00 +30°C° 0 mm 3 m/s 726 mmHg 65%
    Mostrar mais